Location: Roland
(31.1349°N, 85.4372°W)
Time: 22:53:40
(UTC+00:00)

Tiros 1 - Pass Details

Date: 24 April 2021
Orbit: 630 x 664 km, 48.4° (Epoch: 06 May)

Event Time Altitude Azimuth Distance (km) Brightness Sun altitude
Rises 19:45:30 0° 311° (NW) 2,915 10.7 56.0°
Reaches altitude 10° 19:47:50 10° 312° (NW) 2,004 10.0 55.5°
Maximum altitude 19:52:27 83° 41° (NE) 635 8.1 54.6°
Drops below altitude 10° 19:57:03 10° 129° (SE) 2,000 9.6 53.7°
Sets 19:59:22 0° 130° (SE) 2,908 10.3 53.3°
